Location: Newark
(52.2090°N, 4.1550°W)
Time: 13:39:20
(UTC+00:00)

Transit 2A - Pass Details

Date: 31 October 2019
Orbit: 601 x 957 km, 66.7° (Epoch: 11 November)

Event Time Altitude Azimuth Distance (km) Brightness Sun altitude
Rises 19:15:10 0° 261° (W) 3,166 10.5 -22.6°
Reaches altitude 10° 19:18:01 10° 275° (W) 2,181 9.5 -23.1°
Maximum altitude 19:22:01 24° 329° (NNW) 1,374 7.7 -23.7°
Enters shadow 19:24:36 16° 13° (NNE) 1,711 7.7 -24.1°
